When you browse on this site, cookies collect data to enhance your experience and personalize the content and advertising you see.
Visit our Privacy Policy to learn more. By continuing to use the site, you agree to this use of cookies and data.
  • En España
  • Lista de países
  • Para 7 días
  • Temperatura del agua
  • Mapa Satelital
  • El tiempo en el mapa
  • Informadores
  • user-avatar
    Iniciar sesión

    Tiempo cada hora Castlebar

    Hoy, 18 Enero, Viernes

    Tiempo Temperatura Precipitaciones Viento Presión Humedad
    00:00 +1°C° 0.4 mm 6 mps 751 mmHg 79%
    01:00 +1°C° 0.4 mm 6 mps 750 mmHg 83%
    02:00 0°C° 0.4 mm 7 mps 749 mmHg 87%
    03:00 +2°C° 0.2 mm 6 mps 749 mmHg 90%
    04:00 +2°C° 0.2 mm 5 mps 748 mmHg 93%
    05:00 +4°C° 0 mm 4 mps 748 mmHg 96%
    06:00 +4°C° 0 mm 3 mps 747 mmHg 96%
    07:00 +4°C° 0 mm 3 mps 747 mmHg 96%
    08:00 +4°C° 0 mm 3 mps 747 mmHg 97%
    09:00 +5°C° 0 mm 3 mps 747 mmHg 95%
    10:00 +7°C° 0 mm 3 mps 747 mmHg 93%
    11:00 +8°C° 0 mm 3 mps 747 mmHg 91%
    12:00 +8°C° 0.1 mm 3 mps 747 mmHg 91%
    13:00 +8°C° 0.1 mm 3 mps 746 mmHg 91%
    14:00 +8°C° 0.1 mm 3 mps 746 mmHg 90%
    15:00 +8°C° 0.3 mm 3 mps 746 mmHg 92%
    16:00 +7°C° 0.3 mm 3 mps 746 mmHg 94%
    17:00 +7°C° 0.3 mm 2 mps 746 mmHg 96%
    18:00 +6°C° 0.6 mm 2 mps 746 mmHg 97%
    19:00 +6°C° 0.6 mm 2 mps 746 mmHg 97%
    20:00 +7°C° 0.6 mm 1 mps 746 mmHg 97%
    21:00 +7°C° 0.2 mm 1 mps 746 mmHg 96%
    22:00 +7°C° 0.2 mm 1 mps 746 mmHg 96%
    23:00 +6°C° 0.2 mm 1 mps 746 mmHg 96%

    Mañana, 19 Enero, Sábado

    Tiempo Temperatura Precipitaciones Viento Presión Humedad
    00:00 +6°C° 0 mm 1 mps 746 mmHg 96%
    01:00 +6°C° 0 mm 1 mps 747 mmHg 95%
    02:00 +4°C° 0 mm 0 mps 747 mmHg 95%
    03:00 +4°C° 0 mm 0 mps 747 mmHg 95%
    04:00 +4°C° 0 mm 0 mps 747 mmHg 95%
    05:00 +4°C° 0 mm 0 mps 747 mmHg 96%
    06:00 +4°C° 0 mm 0 mps 747 mmHg 96%
    07:00 +4°C° 0 mm 0 mps 748 mmHg 96%
    08:00 +3°C° 0 mm 0 mps 748 mmHg 96%
    09:00 +5°C° 0 mm 0 mps 749 mmHg 95%
    10:00 +6°C° 0 mm 0 mps 749 mmHg 93%
    11:00 +7°C° 0 mm 0 mps 749 mmHg 91%
    12:00 +7°C° 0 mm 0 mps 750 mmHg 92%
    13:00 +8°C° 0 mm 0 mps 750 mmHg 92%
    14:00 +8°C° 0 mm 0 mps 750 mmHg 92%
    15:00 +7°C° 0 mm 0 mps 751 mmHg 93%
    16:00 +8°C° 0 mm 1 mps 751 mmHg 94%
    17:00 +7°C° 0 mm 1 mps 752 mmHg 96%
    18:00 +7°C° 0 mm 1 mps 752 mmHg 96%
    19:00 +7°C° 0 mm 1 mps 753 mmHg 96%
    20:00 +6°C° 0 mm 2 mps 753 mmHg 96%
    21:00 +6°C° 0.1 mm 2 mps 754 mmHg 95%
    22:00 +7°C° 0.1 mm 3 mps 755 mmHg 95%
    23:00 +6°C° 0.1 mm 4 mps 755 mmHg 94%

    Pasado mañana, 20 Enero, Domingo

    Tiempo Temperatura Precipitaciones Viento Presión Humedad
    00:00 +6°C° 0.3 mm 5 mps 756 mmHg 91%
    01:00 +5°C° 0.3 mm 6 mps 757 mmHg 89%
    02:00 +5°C° 0.3 mm 7 mps 757 mmHg 86%
    03:00 +4°C° 0 mm 7 mps 758 mmHg 85%
    04:00 +4°C° 0 mm 6 mps 759 mmHg 83%
    05:00 +3°C° 0 mm 6 mps 760 mmHg 82%
    06:00 +3°C° 0 mm 6 mps 761 mmHg 81%
    07:00 +2°C° 0 mm 5 mps 762 mmHg 80%
    08:00 +2°C° 0 mm 5 mps 763 mmHg 79%
    09:00 +3°C° 0 mm 5 mps 763 mmHg 77%
    10:00 +3°C° 0 mm 5 mps 764 mmHg 74%
    11:00 +5°C° 0 mm 5 mps 765 mmHg 72%
    12:00 +5°C° 0 mm 5 mps 765 mmHg 72%
    13:00 +5°C° 0 mm 4 mps 765 mmHg 72%
    14:00 +5°C° 0 mm 4 mps 766 mmHg 71%
    15:00 +4°C° 0 mm 3 mps 766 mmHg 74%
    16:00 +3°C° 0 mm 3 mps 767 mmHg 76%
    17:00 +3°C° 0 mm 2 mps 767 mmHg 79%
    18:00 +3°C° 0 mm 2 mps 767 mmHg 79%
    19:00 +2°C° 0 mm 2 mps 768 mmHg 79%
    20:00 +3°C° 0 mm 1 mps 768 mmHg 79%
    21:00 +2°C° 0 mm 2 mps 768 mmHg 79%
    22:00 +3°C° 0 mm 2 mps 768 mmHg 79%
    23:00 +3°C° 0 mm 2 mps 768 mmHg 79%

    21 Enero, Lunes

    Tiempo Temperatura Precipitaciones Viento Presión Humedad
    00:00 +3°C° 0 mm 2 mps 768 mmHg 80%
    01:00 +3°C° 0 mm 2 mps 767 mmHg 82%
    02:00 +2°C° 0 mm 3 mps 767 mmHg 83%
    03:00 +3°C° 0 mm 3 mps 766 mmHg 82%
    04:00 +3°C° 0 mm 4 mps 766 mmHg 81%
    05:00 +4°C° 0 mm 4 mps 765 mmHg 80%
    06:00 +3°C° 0 mm 5 mps 764 mmHg 80%
    07:00 +4°C° 0 mm 6 mps 763 mmHg 80%
    08:00 +4°C° 0 mm 7 mps 762 mmHg 80%
    09:00 +5°C° 0.2 mm 8 mps 761 mmHg 80%
    10:00 +5°C° 0.2 mm 9 mps 759 mmHg 81%
    11:00 +6°C° 0.2 mm 9 mps 758 mmHg 81%
    12:00 +6°C° 2.7 mm 9 mps 757 mmHg 84%
    13:00 +6°C° 2.7 mm 9 mps 755 mmHg 86%
    14:00 +6°C° 2.7 mm 9 mps 754 mmHg 88%
    15:00 +5°C° 0.7 mm 9 mps 754 mmHg 85%
    16:00 +4°C° 0.7 mm 8 mps 754 mmHg 81%
    17:00 +1°C° 0.7 mm 8 mps 754 mmHg 77%
    18:00 +1°C° 0.3 mm 8 mps 754 mmHg 76%
    19:00 +1°C° 0.3 mm 8 mps 754 mmHg 75%
    20:00 0°C° 0.3 mm 7 mps 754 mmHg 74%
    21:00 0°C° 0.3 mm 8 mps 754 mmHg 73%
    22:00 0°C° 0.3 mm 8 mps 753 mmHg 72%
    23:00 0°C° 0.3 mm 8 mps 753 mmHg 70%

    22 Enero, Martes

    Tiempo Temperatura Precipitaciones Viento Presión Humedad
    00:00 0°C° 0.3 mm 8 mps 752 mmHg 72%
    01:00 0°C° 0.3 mm 8 mps 752 mmHg 73%
    02:00 0°C° 0.3 mm 7 mps 751 mmHg 74%
    03:00 0°C° 0.3 mm 8 mps 751 mmHg 74%
    04:00 0°C° 0.3 mm 8 mps 751 mmHg 74%
    05:00 -1°C° 0.3 mm 8 mps 751 mmHg 74%
    06:00 0°C° 0.3 mm 8 mps 751 mmHg 75%
    07:00 0°C° 0.3 mm 7 mps 751 mmHg 76%
    08:00 0°C° 0.3 mm 7 mps 751 mmHg 77%
    09:00 0°C° 0.4 mm 7 mps 750 mmHg 78%
    10:00 0°C° 0.4 mm 7 mps 750 mmHg 78%
    11:00 0°C° 0.4 mm 7 mps 750 mmHg 79%
    12:00 0°C° 0.3 mm 7 mps 750 mmHg 80%
    13:00 0°C° 0.3 mm 7 mps 750 mmHg 81%
    14:00 +1°C° 0.3 mm 6 mps 750 mmHg 82%
    15:00 +2°C° 0.4 mm 6 mps 750 mmHg 83%
    16:00 +2°C° 0.4 mm 5 mps 749 mmHg 85%
    17:00 +2°C° 0.4 mm 5 mps 749 mmHg 87%
    18:00 +2°C° 0.3 mm 5 mps 749 mmHg 87%
    19:00 +2°C° 0.3 mm 5 mps 749 mmHg 87%
    20:00 +2°C° 0.3 mm 5 mps 749 mmHg 87%
    21:00 +2°C° 0.3 mm 5 mps 748 mmHg 86%
    22:00 +2°C° 0.3 mm 5 mps 748 mmHg 85%
    23:00 +2°C° 0.3 mm 5 mps 748 mmHg 84%

    23 Enero, Miércoles

    Tiempo Temperatura Precipitaciones Viento Presión Humedad
    00:00 +2°C° 0 mm 6 mps 748 mmHg 82%
    01:00 +2°C° 0 mm 6 mps 748 mmHg 80%
    02:00 +2°C° 0 mm 6 mps 749 mmHg 78%
    03:00 +2°C° 0.2 mm 7 mps 749 mmHg 79%
    04:00 +2°C° 0.2 mm 7 mps 749 mmHg 80%
    05:00 +2°C° 0.2 mm 7 mps 749 mmHg 81%
    06:00 +2°C° 0.1 mm 7 mps 749 mmHg 80%
    07:00 +2°C° 0.1 mm 7 mps 749 mmHg 78%
    08:00 +2°C° 0.1 mm 7 mps 750 mmHg 77%
    09:00 +2°C° 0.1 mm 7 mps 750 mmHg 76%
    10:00 +3°C° 0.1 mm 7 mps 750 mmHg 75%
    11:00 +3°C° 0.1 mm 7 mps 751 mmHg 74%
    12:00 +3°C° 0.1 mm 7 mps 752 mmHg 73%
    13:00 +4°C° 0.1 mm 6 mps 752 mmHg 73%
    14:00 +5°C° 0.1 mm 5 mps 753 mmHg 72%
    15:00 +3°C° 0 mm 5 mps 754 mmHg 74%
    16:00 +3°C° 0 mm 5 mps 754 mmHg 75%
    17:00 +3°C° 0 mm 4 mps 755 mmHg 77%
    18:00 +3°C° 0 mm 4 mps 756 mmHg 78%
    19:00 +3°C° 0 mm 4 mps 756 mmHg 80%
    20:00 +3°C° 0 mm 4 mps 757 mmHg 81%
    21:00 +3°C° 0 mm 4 mps 757 mmHg 82%
    22:00 +3°C° 0 mm 4 mps 757 mmHg 83%
    23:00 +3°C° 0 mm 4 mps 758 mmHg 84%
    Mostrar más